Regional Weather Roundup
Issued by NWS

Home | Current Version | Previous Version | Text Only | Print | Product List | Glossary Off
Versions: 1 2 3 4 5 6 7 8 9 10 11 12 13 14 15 16 17 18 19 20 21 22 23 24 25 26 27 28 29 30 31 32 33 34 35 36 37 38 39 40 41 42 43 44 45 46 47 48 49 50

000
ASUS43 KOAX 290210
RWRNE

WEATHER ROUNDUP FOR NEBRASKA
NATIONAL WEATHER SERVICE OMAHA NE
800 PM CST WED JAN 28 2015

NOTES: SATELLITE DATA IS BEING USED TO AUGMENT CLOUD COVER ABOVE
       12000 FEET.
       "FAIR" INDICATES FEW OR NO CLOUDS BELOW 12,000 FEET WITH NO
       SIGNIFICANT WEATHER AND/OR OBSTRUCTIONS TO VISIBILITY.

  * THESE STATIONS DO NOT REPORT WEATHER SUCH AS RAIN...SNOW OR FOG.

NEZ001>004-019>022-054>056-290300-
NEBRASKA PANHANDLE

CITY           SKY/WX    TMP DP  RH WIND       PRES   REMARKS
SCOTTSBLUFF    CLEAR     37  33  85 NW9       30.17R WCI  30
ALLIANCE       PTCLDY    38  30  73 NW9       30.12R WCI  31
CHADRON        MOCLDY    44  30  57 NW14      30.16R
KIMBALL        PTCLDY    37  34  91 W7        30.17R WCI  31
SIDNEY         CLEAR     38  34  85 W13       30.16R WCI  30
$$

NEZ057>060-069>072-079>082-290300-
SOUTHWEST NEBRASKA

CITY           SKY/WX    TMP DP  RH WIND       PRES   REMARKS
NORTH PLATTE   PTCLDY    48  33  56 NW18G26   30.02R
IMPERIAL       CLEAR     47  36  65 NW16      30.09R
LEXINGTON      MOCLDY    53  32  44 NW16      29.97R
MCCOOK         PTCLDY    50  29  44 NW14      30.03R
OGALLALA       PTCLDY    44  34  67 NW10      30.10R
$$

NEZ005>010-023>029-035>040-094-290300-
NORTH CENTRAL NEBRASKA

CITY           SKY/WX    TMP DP  RH WIND       PRES   REMARKS
VALENTINE      MOCLDY    45  33  63 N26G36    30.04R
AINSWORTH      MOCLDY    46  32  58 NW26G35   30.01R
BROKEN BOW     CLOUDY    55  30  38 N28G37    29.96R
O`NEILL        CLOUDY    50  35  57 NW31G41   29.94R
ORD            MOCLDY    54  30  40 NW25G41   29.91R
THEDFORD       MOCLDY    48  35  59 NW14      30.03R
$$

NEZ041-046>049-061>064-073>077-083>087-290300-
SOUTH CENTRAL NEBRASKA

CITY           SKY/WX    TMP DP  RH WIND       PRES   REMARKS
GRAND ISLAND   PTCLDY    54  30  40 NW17      29.89R
AURORA         PTCLDY    55  30  37 NW29G38   29.87R
HASTINGS       MOCLDY    54  28  36 NW21      29.89R
HEBRON         CLEAR     56  29  35 NW13G18   29.84R
HOLDREGE       PTCLDY    51  28  41 NW15      29.95R
KEARNEY *      CLOUDY    55  28  35 NW23G29   29.92R
YORK           PTCLDY    52  32  46 NW18      29.84R
$$

NEZ011>018-030>034-042>045-290300-
NORTHEAST NEBRASKA

CITY           SKY/WX    TMP DP  RH WIND       PRES   REMARKS
NORFOLK        CLEAR     50  36  58 NW26G33   29.83R
ALBION         PTCLDY    53  32  43 N24G38    29.87R
BLAIR          CLEAR     49  37  64 NW12      29.75R
COLUMBUS *     CLEAR     48  34  57 NW18G24   29.84R
FREMONT        CLEAR     44  36  73 W10       29.78R
TEKAMAH        CLEAR     47  37  68 NW22      29.76R
WAYNE          PTCLDY    41  37  83 NW13      29.83R
$$

NEZ050>053-065>068-078-088>093-290300-
SOUTHEAST NEBRASKA

CITY           SKY/WX    TMP DP  RH WIND       PRES   REMARKS
LINCOLN        CLEAR     54  36  50 NW15      29.81R
OMAHA EPPLEY   CLEAR     48  36  63 NW15      29.75R
BEATRICE       CLEAR     47  33  58 NW12      29.79R
FALLS CITY     MOCLDY    51  34  52 W10       29.72R
NEBRASKA CITY  CLEAR     49  30  47 NW10      29.73R
PLATTSMOUTH    CLEAR     45  32  59 NW12      29.75R
$$

NEZ044-045-051>053-067-290300-
OMAHA AREA

CITY           SKY/WX    TMP DP  RH WIND       PRES   REMARKS
OMAHA EPPLEY   CLEAR     48  36  63 NW15      29.75R
BLAIR          CLEAR     49  37  64 NW12      29.75R
FREMONT        CLEAR     44  36  73 W10       29.78R
MILLARD        CLEAR     50  37  59 NW10      29.76R
OFFUTT AFB     CLEAR     42  33  71 NW12      29.74R
PLATTSMOUTH    CLEAR     45  32  59 NW12      29.75R
WAHOO          FAIR      43  33  66 NW7       29.79R
$$



USA.gov is the U.S. government's official web portal to all federal, state and local government web resources and services.